User: anonymous   Login
Location: Unspecified
(0.0000°N, 0.0000°E)
Time: 05:55:29
(UTC+00:00)
Language:

GAS SHIELD (DEBRIS) - Orbit

View from above orbital plane
View from above orbital plane
View from above satellite
View from above satellite

Ground track
Ground track

The orbit data is extracted from the following two-line orbital elements,

1 27612U 02058H   17228.20527656  .00000007  00000-0  20106-4 0  9996
2 27612  64.5552 189.5128 0020519   0.5718 359.5406 14.79253341790039
Epoch (UTC): 16 August 2017 04:55:35
Eccentricity: 0.0020519
inclination: 64.5552°
perigee height: 617 km
apogee height: 646 km
right ascension of ascending node: 189.5128°
argument of perigee: 0.5718°
revolutions per day: 14.79253341
mean anomaly at epoch: 359.5406°
orbit number at epoch: 79003

The dashed part of the orbit path shows where the satellite is in the earth's shadow,  

DLR